sat.trackr.live / text

‹ back to catalog

STARLINK-34130

NORAD 64736 · 2025-144N

PAYLOAD ACTIVE UNKNOWN

§ Identity

Operator
Country
US
Launch date
2025-07-02
Launch site
AFETR
Launch vehicle
Mass (kg)
RCS (m²)

Purposes: comms

External: N2YO · Heavens-Above · Gunter

§ Orbital elements

Epoch: 2026-05-24T12:42:23.273856Z

Period
94.11 min
Inclination
53.1585°
Eccentricity
0.0001037
Mean motion
15.30201588 rev/d
Perigee alt
474.5 km
Apogee alt
475.9 km
Semi-major
6,853.3 km
B*
7.5308e-4
RAAN
188.7451°
Arg perigee
71.9562°
Mean anomaly
288.1552°
Rev number
5,132

§ Raw data

STARLINK-341301 64736U 25144N   26144.52943604  .00022012  00000+0  75308-3 0  99942 64736  53.1585 188.7451 0001037  71.9562 288.1552 15.30201588 51325

JSON: /api/v1/satellites/64736 · /tle

For live sub-satellite position, see the globe view (requires WebGL).

§ Visibility from observer

Set your observer location to see the next 7 days of passes ≥ 10°. The values pass through the URL so the page stays shareable.

No JS? Fill the form by hand. The geolocation button needs JavaScript.